TimeCDT,TemperatureF,Dew PointF,Humidity,Sea Level PressureIn,VisibilityMPH,Wind Direction,Wind SpeedMPH,Gust SpeedMPH,PrecipitationIn,Events,Conditions,WindDirDegrees,DateUTC
12:53 AM,53.1,48.0,83,30.24,10.0,Calm,Calm,-,N/A,,Clear,0,2013-04-27 05:53:00
1:53 AM,52.0,48.0,86,30.22,10.0,Calm,Calm,-,N/A,,Clear,0,2013-04-27 06:53:00
2:53 AM,51.1,46.9,86,30.22,10.0,East,3.5,-,N/A,,Clear,80,2013-04-27 07:53:00
3:53 AM,52.0,46.0,80,30.21,10.0,Calm,Calm,-,N/A,,Clear,0,2013-04-27 08:53:00
4:53 AM,51.1,46.0,83,30.21,10.0,Calm,Calm,-,N/A,,Clear,0,2013-04-27 09:53:00
5:53 AM,52.0,46.9,83,30.21,10.0,Calm,Calm,-,N/A,,Clear,0,2013-04-27 10:53:00
6:53 AM,57.0,51.1,81,30.23,10.0,NE,4.6,-,N/A,,Clear,50,2013-04-27 11:53:00
7:53 AM,63.0,55.0,75,30.25,10.0,Variable,3.5,-,N/A,,Overcast,0,2013-04-27 12:53:00
8:53 AM,66.0,55.9,70,30.25,10.0,ESE,4.6,-,N/A,,Overcast,120,2013-04-27 13:53:00
9:53 AM,68.0,57.9,70,30.24,10.0,SE,3.5,-,N/A,,Overcast,140,2013-04-27 14:53:00
10:53 AM,72.0,60.1,66,30.23,10.0,SE,6.9,-,N/A,,Mostly Cloudy,140,2013-04-27 15:53:00
11:53 AM,75.9,61.0,60,30.22,10.0,South,10.4,16.1,N/A,,Mostly Cloudy,180,2013-04-27 16:53:00
12:53 PM,79.0,61.0,54,30.19,10.0,South,9.2,-,N/A,,Mostly Cloudy,170,2013-04-27 17:53:00
1:53 PM,81.0,61.0,50,30.16,10.0,South,12.7,-,N/A,,Scattered Clouds,170,2013-04-27 18:53:00
2:53 PM,82.9,60.1,46,30.13,10.0,Variable,6.9,-,N/A,,Scattered Clouds,0,2013-04-27 19:53:00
3:53 PM,82.9,57.9,42,30.12,10.0,SSW,5.8,-,N/A,,Partly Cloudy,210,2013-04-27 20:53:00
4:53 PM,82.0,59.0,45,30.10,10.0,South,8.1,-,N/A,,Mostly Cloudy,180,2013-04-27 21:53:00
5:53 PM,79.0,60.1,52,30.09,10.0,SSE,4.6,-,N/A,,Scattered Clouds,160,2013-04-27 22:53:00
6:53 PM,77.0,62.1,60,30.09,10.0,South,5.8,-,N/A,,Scattered Clouds,190,2013-04-27 23:53:00
7:53 PM,73.0,62.1,68,30.09,10.0,SSW,3.5,-,N/A,,Scattered Clouds,200,2013-04-28 00:53:00
8:53 PM,72.0,63.0,73,30.09,10.0,South,10.4,-,N/A,,Clear,170,2013-04-28 01:53:00
9:53 PM,70.0,63.0,78,30.08,9.0,South,9.2,-,N/A,,Clear,170,2013-04-28 02:53:00
10:53 PM,69.1,63.0,81,30.11,9.0,South,5.8,-,N/A,,Clear,180,2013-04-28 03:53:00
11:53 PM,68.0,63.0,84,30.12,7.0,SSW,3.5,-,N/A,,Scattered Clouds,210,2013-04-28 04:53:00